Location: Newark
(53.5596°N, 1.2370°W)
Time: 00:48:37
(UTC+00:00)

MOZHAYETS 4 - Visible Passes

Search period start: 11 December 2019 00:00
Search period end: 21 December 2019 00:00
Orbit: 662 x 680 km, 98.1° (Epoch: 10 December)

Date Brightness Start Highest point End Pass type
(mag) Time Alt. Az. Time Alt. Az. Time Alt. Az.
11 Dec 10.4 17:26:02 10° NNW 17:27:19 11° NW 17:28:37 10° WNW visible
12 Dec 9.4 16:20:03 10° N 16:24:03 29° WNW 16:28:01 10° WSW visible
13 Dec 10.1 16:53:44 10° NNW 16:56:47 18° NW 16:59:50 10° W visible
14 Dec 10.5 17:28:22 10° NW 17:29:24 11° NW 17:30:25 10° WNW visible
15 Dec 9.5 16:22:11 10° N 16:26:09 28° WNW 16:30:03 10° WSW visible
16 Dec 10.1 16:55:54 10° NNW 16:58:52 17° NW 17:01:50 10° W visible
17 Dec 10.5 17:30:50 10° NW 17:31:28 10° NW 17:32:06 10° NW visible
18 Dec 9.5 16:24:20 10° N 16:28:14 27° WNW 16:32:06 10° WSW visible
19 Dec 10.2 16:58:04 10° NNW 17:00:57 17° NW 17:03:48 10° W visible
